O80EP LFMK-LESU

Flight info

Callsign O80EP
Flight time 0h 25m
Altitude 12000
Route OLOXO
Aircraft B58T/L-SDFGRY/C

Departure

Time 2026-04-27 18:45
Airport Carcassonne Salvaza Airport (LFMK)

Arrival

Time 2026-04-27 19:10
Airport Pirineus - la Seu d'Urgel Airport (LESU)
Time Latitude Longitude Altitude Speed Heading
2026-04-27 18:38 43.21470 2.30279 390 ft 0 kts 276°
2026-04-27 18:43 43.21500 2.30281 418 ft 10 kts 15°
2026-04-27 18:43 43.21584 2.30300 419 ft 10 kts
2026-04-27 18:44 43.21622 2.30337 419 ft 8 kts 85°
2026-04-27 18:44 43.21621 2.30348 419 ft 0 kts 98°
2026-04-27 18:44 43.21600 2.30611 417 ft 69 kts 97°
2026-04-27 18:44 43.21518 2.31504 548 ft 106 kts 96°
2026-04-27 18:45 43.21417 2.32511 943 ft 106 kts 95°
2026-04-27 18:45 43.21315 2.33546 1273 ft 115 kts 96°
2026-04-27 18:45 43.21215 2.34661 1576 ft 123 kts 97°
2026-04-27 18:45 43.21113 2.35851 1890 ft 128 kts 97°
2026-04-27 18:46 43.21008 2.37097 2200 ft 132 kts 98°
2026-04-27 18:46 43.20904 2.38351 2502 ft 134 kts 97°
2026-04-27 18:46 43.20801 2.39618 2795 ft 136 kts 99°
2026-04-27 18:46 43.20327 2.40689 3084 ft 137 kts 153°
2026-04-27 18:47 43.19383 2.40918 3389 ft 142 kts 193°
2026-04-27 18:47 43.18530 2.40262 3705 ft 144 kts 226°
2026-04-27 18:47 43.17783 2.39294 4013 ft 151 kts 224°
2026-04-27 18:47 43.16992 2.38329 4325 ft 154 kts 224°
2026-04-27 18:48 43.16178 2.37348 4635 ft 157 kts 223°
2026-04-27 18:48 43.15346 2.36350 4943 ft 161 kts 222°
2026-04-27 18:48 43.14497 2.35334 5242 ft 163 kts 222°
2026-04-27 18:48 43.13638 2.34306 5542 ft 165 kts 221°
2026-04-27 18:49 43.12769 2.33268 5843 ft 166 kts 221°
2026-04-27 18:49 43.11892 2.32221 6148 ft 168 kts 221°
2026-04-27 18:49 43.11009 2.31165 6450 ft 169 kts 221°
2026-04-27 18:49 43.10116 2.30099 6739 ft 171 kts 221°
2026-04-27 18:50 43.09215 2.29024 7031 ft 172 kts 221°
2026-04-27 18:50 43.08315 2.27949 7324 ft 173 kts 221°
2026-04-27 18:50 43.07406 2.26867 7618 ft 173 kts 221°
2026-04-27 18:50 43.06495 2.25781 7913 ft 174 kts 221°
2026-04-27 18:51 43.05589 2.24701 8210 ft 175 kts 222°
2026-04-27 18:51 43.04666 2.23602 8499 ft 176 kts 221°
2026-04-27 18:51 43.03738 2.22497 8809 ft 177 kts 222°
2026-04-27 18:51 43.02802 2.21385 9114 ft 178 kts 222°
2026-04-27 18:52 43.01866 2.20271 9425 ft 179 kts 222°
2026-04-27 18:52 43.00920 2.19146 9738 ft 180 kts 222°
2026-04-27 18:52 42.99970 2.18017 10057 ft 181 kts 222°
2026-04-27 18:53 42.98070 2.15760 10615 ft 183 kts 221°
2026-04-27 18:53 42.97108 2.14620 10904 ft 184 kts 222°
2026-04-27 18:53 42.96142 2.13473 11201 ft 184 kts 222°
2026-04-27 18:53 42.95173 2.12324 11496 ft 185 kts 221°
2026-04-27 18:54 42.94201 2.11172 11793 ft 185 kts 221°
2026-04-27 18:54 42.93221 2.10011 12004 ft 191 kts 222°
2026-04-27 18:54 42.92186 2.08782 12015 ft 203 kts 221°
2026-04-27 18:54 42.91095 2.07490 12017 ft 211 kts 221°
2026-04-27 18:55 42.89969 2.06157 12020 ft 216 kts 222°
2026-04-27 18:55 42.88823 2.04802 12020 ft 220 kts 222°
2026-04-27 18:55 42.87662 2.03430 12021 ft 221 kts 221°
2026-04-27 18:55 42.86495 2.02051 12017 ft 223 kts 222°
2026-04-27 18:56 42.85339 2.00687 12019 ft 223 kts 221°
2026-04-27 18:56 42.84165 1.99301 12028 ft 223 kts 221°
2026-04-27 18:56 42.82988 1.97912 12034 ft 223 kts 221°
2026-04-27 18:56 42.81814 1.96528 12033 ft 223 kts 221°
2026-04-27 18:57 42.80640 1.95146 12032 ft 223 kts 221°
2026-04-27 18:57 42.79467 1.93764 12032 ft 223 kts 221°
2026-04-27 18:57 42.78297 1.92388 12032 ft 222 kts 221°
2026-04-27 18:57 42.77125 1.91009 12032 ft 222 kts 221°
2026-04-27 18:58 42.75958 1.89637 12045 ft 221 kts 221°
2026-04-27 18:58 42.75188 1.88731 12042 ft 221 kts 221°
2026-04-27 18:58 42.73636 1.86909 12043 ft 220 kts 221°
2026-04-27 18:58 42.72478 1.85550 12042 ft 220 kts 221°
2026-04-27 18:59 42.71318 1.84188 12041 ft 220 kts 221°
2026-04-27 18:59 42.70160 1.82830 12042 ft 219 kts 221°
2026-04-27 18:59 42.69026 1.81501 12042 ft 217 kts 221°
2026-04-27 18:59 42.67881 1.80159 12048 ft 217 kts 221°
2026-04-27 19:00 42.66729 1.78810 12011 ft 220 kts 222°
2026-04-27 19:00 42.65569 1.77452 12007 ft 220 kts 221°
2026-04-27 19:00 42.64407 1.76094 12004 ft 221 kts 221°
2026-04-27 19:00 42.63244 1.74734 12004 ft 220 kts 221°
2026-04-27 19:01 42.62085 1.73378 12010 ft 220 kts 221°
2026-04-27 19:01 42.60925 1.72024 12000 ft 220 kts 221°
2026-04-27 19:01 42.59763 1.70667 12013 ft 221 kts 221°
2026-04-27 19:01 42.58597 1.69307 12012 ft 221 kts 221°
2026-04-27 19:02 42.57429 1.67944 12017 ft 222 kts 221°
2026-04-27 19:02 42.56256 1.66578 12014 ft 222 kts 221°
2026-04-27 19:02 42.55084 1.65212 12015 ft 222 kts 221°
2026-04-27 19:02 42.53915 1.63851 12016 ft 222 kts 221°
2026-04-27 19:03 42.52744 1.62487 12014 ft 222 kts 221°
2026-04-27 19:03 42.51565 1.61115 11925 ft 226 kts 221°
2026-04-27 19:03 42.50767 1.60186 11782 ft 230 kts 221°
2026-04-27 19:03 42.49557 1.58780 11562 ft 229 kts 221°
2026-04-27 19:04 42.48352 1.57382 11342 ft 228 kts 221°
2026-04-27 19:04 42.47150 1.55986 11120 ft 227 kts 221°
2026-04-27 19:04 42.45950 1.54594 10867 ft 228 kts 221°
2026-04-27 19:04 42.44740 1.53189 10509 ft 228 kts 221°
2026-04-27 19:05 42.43549 1.51809 10133 ft 221 kts 221°
2026-04-27 19:05 42.42404 1.50485 9694 ft 212 kts 222°
2026-04-27 19:05 42.41310 1.49217 9167 ft 203 kts 221°
2026-04-27 19:05 42.40403 1.47824 8578 ft 196 kts 237°
2026-04-27 19:06 42.39492 1.46393 7676 ft 204 kts 221°
2026-04-27 19:06 42.38308 1.45339 6792 ft 205 kts 208°
2026-04-27 19:06 42.37062 1.44457 5839 ft 203 kts 207°
2026-04-27 19:06 42.35811 1.43555 4709 ft 200 kts 210°
2026-04-27 19:07 42.34629 1.42632 3569 ft 196 kts 211°
2026-04-27 19:07 42.33482 1.41891 2998 ft 166 kts 203°
2026-04-27 19:07 42.32555 1.41232 2643 ft 137 kts 244°
2026-04-27 19:07 42.32614 1.40021 2573 ft 143 kts 307°
2026-04-27 19:08 42.33358 1.40079 2842 ft 116 kts 57°
2026-04-27 19:08 42.33835 1.40887 2723 ft 112 kts 24°
2026-04-27 19:08 42.34287 1.41696 2884 ft 123 kts 109°
2026-04-27 19:08 42.33574 1.41951 3103 ft 135 kts 208°
2026-04-27 19:09 42.32653 1.41250 2985 ft 158 kts 211°
2026-04-27 19:09 42.32048 1.40164 2905 ft 144 kts 269°
2026-04-27 19:09 42.32626 1.39349 2887 ft 125 kts 24°
2026-04-27 19:09 42.33166 1.40213 2832 ft 122 kts 51°
2026-04-27 19:10 42.33844 1.40841 2654 ft 114 kts 31°
2026-04-27 19:10 42.34454 1.41357 2635 ft 76 kts 32°
2026-04-27 19:10 42.34640 1.41489 2634 ft 0 kts
2026-04-27 19:11 42.34538 1.41408 3259 ft 0 kts
2026-04-27 19:11 42.35350 1.41393 3422 ft 151 kts 339°
2026-04-27 19:11 42.35729 1.40433 3269 ft 111 kts 249°
2026-04-27 19:11 42.35210 1.39706 3170 ft 112 kts 206°
2026-04-27 19:12 42.34492 1.39269 3102 ft 112 kts 202°
2026-04-27 19:12 42.33770 1.38896 3010 ft 112 kts 178°
2026-04-27 19:12 42.33198 1.39476 3023 ft 107 kts 115°
2026-04-27 19:12 42.33282 1.40430 2861 ft 109 kts 39°
2026-04-27 19:13 42.33929 1.40925 2635 ft 91 kts 32°
2026-04-27 19:13 42.34195 1.41145 2635 ft 4 kts 25°
2026-04-27 19:13 42.34150 1.41095 2634 ft 37 kts 211°
2026-04-27 19:13 42.33688 1.40723 2635 ft 110 kts 211°
2026-04-27 19:14 42.33126 1.40549 2190 ft 35 kts 353°